Terug naar catalogus

KOSMOS-1867 COOLANT

ActiefLEO
NORAD 59050·DEBRIS·🇷🇺 Russia
Deze satellietnaam is nog niet bevestigd door officiële bronnen.

Gelanceerd Jul 10, 1987 vanaf Baikonur Cosmodrome

Loading…

Volgende Passages (komende 24 uur)

TLE

VersSource: Space-Track

Epoch: Sep 14, 2026, 05:25 UTC

1 59050U 87060AX  26257.22577805  .00000242  00000-0  12050-3 0  9997
2 59050  65.0062 114.8491 0019405 278.1552  81.7333 14.34776112133702

Volg KOSMOS-1867 COOLANT in realtime met AllMySat

Download on the App Store